| time (UTC) | temp F | wind direction | speed MPH | gust MPH | rain 1hr in | rain 24hr in | rain mn in | humidity % | barometer mb |
| 20260508155818 | 65 | 212 | 3.0 | 3.0 | 0.00 | 0.00 | 0.00 | 61 | 1010.2 |
| 20260508155315 | 63 | 257 | 4.0 | 5.0 | 0.00 | 0.00 | 0.00 | 60 | 1010.0 |
| 20260508154812 | 63 | 246 | 5.0 | 6.0 | 0.00 | 0.00 | 0.00 | 62 | 1010.1 |
| 20260508154310 | 63 | 250 | 3.0 | 5.0 | 0.00 | 0.00 | 0.00 | 64 | 1010.2 |
| 20260508153806 | 64 | 227 | 4.0 | 5.0 | 0.00 | 0.00 | 0.00 | 61 | 1010.4 |
| 20260508153304 | 65 | 251 | 4.0 | 5.0 | 0.00 | 0.00 | 0.00 | 58 | 1010.1 |
| 20260508152759 | 63 | 229 | 3.0 | 5.0 | 0.00 | 0.00 | 0.00 | 62 | 1010.2 |
| 20260508152256 | 63 | 260 | 4.0 | 5.0 | 0.00 | 0.00 | 0.00 | 61 | 1010.3 |
| 20260508151752 | 63 | 293 | 5.0 | 6.0 | 0.00 | 0.00 | 0.00 | 63 | 1010.2 |
| 20260508151249 | 61 | 239 | 5.0 | 5.0 | 0.00 | 0.00 | 0.00 | 63 | 1010.1 |
| 20260508150745 | 61 | 263 | 3.0 | 5.0 | 0.00 | 0.00 | 0.00 | 64 | 1010.4 |
| 20260508150242 | 62 | 254 | 3.0 | 3.0 | 0.00 | 0.00 | 0.00 | 61 | 1010.4 |
| 20260508145738 | 63 | 265 | 4.0 | 5.0 | 0.00 | 0.00 | 0.00 | 65 | 1010.5 |
| 20260508145235 | 63 | 230 | 4.0 | 6.0 | 0.00 | 0.00 | 0.00 | 62 | 1010.3 |
| 20260508144731 | 62 | 169 | 3.0 | 5.0 | 0.00 | 0.00 | 0.00 | 63 | 1010.3 |
| 20260508144230 | 63 | 231 | 3.0 | 3.0 | 0.00 | 0.00 | 0.00 | 62 | 1010.4 |
| 20260508143727 | 62 | 221 | 3.0 | 5.0 | 0.00 | 0.00 | 0.00 | 62 | 1010.5 |
| 20260508143224 | 61 | 262 | 6.0 | 8.0 | 0.00 | 0.00 | 0.00 | 63 | 1010.4 |
| 20260508142720 | 61 | 258 | 6.0 | 8.0 | 0.00 | 0.00 | 0.00 | 64 | 1010.4 |
| 20260508142217 | 62 | 227 | 2.0 | 3.0 | 0.00 | 0.00 | 0.00 | 64 | 1010.7 |
| 20260508141713 | 61 | 263 | 5.0 | 6.0 | 0.00 | 0.00 | 0.00 | 64 | 1010.7 |
| 20260508141211 | 62 | 216 | 2.0 | 2.0 | 0.00 | 0.00 | 0.00 | 62 | 1010.7 |
| 20260508140708 | 61 | 250 | 4.0 | 5.0 | 0.00 | 0.00 | 0.00 | 63 | 1010.6 |
| 20260508140205 | 61 | 244 | 4.0 | 5.0 | 0.00 | 0.00 | 0.00 | 64 | 1010.8 |
| 20260508135701 | 60 | 225 | 3.0 | 5.0 | 0.00 | 0.00 | 0.00 | 63 | 1010.7 |
| 20260508135202 | 59 | 263 | 5.0 | 7.0 | 0.00 | 0.00 | 0.00 | 64 | 1010.6 |
| 20260508134658 | 59 | 257 | 7.0 | 8.0 | 0.00 | 0.00 | 0.00 | 65 | 1010.9 |
| 20260508134155 | 59 | 230 | 3.0 | 3.0 | 0.00 | 0.00 | 0.00 | 64 | 1010.8 |
| 20260508133652 | 58 | 244 | 4.0 | 5.0 | 0.00 | 0.00 | 0.00 | 66 | 1010.9 |
| 20260508133150 | 57 | 229 | 3.0 | 5.0 | 0.00 | 0.00 | 0.00 | 66 | 1010.9 |
| 20260508132647 | 57 | 248 | 4.0 | 5.0 | 0.00 | 0.00 | 0.00 | 67 | 1011.1 |
| 20260508132144 | 57 | 241 | 3.0 | 5.0 | 0.00 | 0.00 | 0.00 | 69 | 1010.9 |
| 20260508131640 | 56 | 251 | 3.0 | 3.0 | 0.00 | 0.00 | 0.00 | 66 | 1010.9 |
| 20260508131136 | 56 | 243 | 4.0 | 5.0 | 0.00 | 0.00 | 0.00 | 67 | 1011.1 |
| 20260508130633 | 55 | 234 | 3.0 | 3.0 | 0.00 | 0.00 | 0.00 | 69 | 1010.9 |
| 20260508130130 | 55 | 243 | 5.0 | 6.0 | 0.00 | 0.00 | 0.00 | 67 | 1011.1 |
| 20260508125625 | 54 | 236 | 5.0 | 6.0 | 0.00 | 0.00 | 0.00 | 69 | 1011.0 |
| 20260508125123 | 54 | 231 | 3.0 | 3.0 | 0.00 | 0.00 | 0.00 | 68 | 1011.0 |
| 20260508124621 | 54 | 215 | 2.0 | 2.0 | 0.00 | 0.00 | 0.00 | 68 | 1010.8 |
| 20260508124118 | 53 | 241 | 3.0 | 3.0 | 0.00 | 0.00 | 0.00 | 68 | 1011.0 |
| 20260508123616 | 53 | 244 | 3.0 | 3.0 | 0.00 | 0.00 | 0.00 | 68 | 1010.9 |
| 20260508123113 | 53 | 254 | 4.0 | 5.0 | 0.00 | 0.00 | 0.00 | 69 | 1010.8 |
| 20260508122609 | 52 | 237 | 2.0 | 2.0 | 0.00 | 0.00 | 0.00 | 71 | 1010.9 |
| 20260508122107 | 52 | 218 | 2.0 | 2.0 | 0.00 | 0.00 | 0.00 | 71 | 1010.8 |
| 20260508121605 | 52 | 238 | 3.0 | 3.0 | 0.00 | 0.00 | 0.00 | 69 | 1010.8 |
| 20260508121103 | 51 | 251 | 3.0 | 5.0 | 0.00 | 0.00 | 0.00 | 73 | 1011.0 |
| 20260508120600 | 51 | 252 | 3.0 | 3.0 | 0.00 | 0.00 | 0.00 | 72 | 1011.1 |
| 20260508120058 | 51 | 247 | 4.0 | 5.0 | 0.00 | 0.00 | 0.00 | 71 | 1010.8 |
| 20260508115555 | 50 | 240 | 2.0 | 2.0 | 0.00 | 0.00 | 0.00 | 73 | 1010.9 |
| 20260508115051 | 50 | 256 | 3.0 | 3.0 | 0.00 | 0.00 | 0.00 | 72 | 1010.8 |
| 20260508114549 | 50 | 265 | 2.0 | 3.0 | 0.00 | 0.00 | 0.00 | 73 | 1010.8 |
| 20260508114045 | 50 | 233 | 2.0 | 3.0 | 0.00 | 0.00 | 0.00 | 72 | 1010.9 |
| 20260508113542 | 50 | 199 | 1.0 | 1.0 | 0.00 | 0.00 | 0.00 | 72 | 1010.9 |
| 20260508113040 | 50 | 255 | 2.0 | 2.0 | 0.00 | 0.00 | 0.00 | 74 | 1010.7 |
| 20260508112536 | 49 | 227 | 3.0 | 3.0 | 0.00 | 0.00 | 0.00 | 73 | 1010.7 |
| 20260508112033 | 49 | 254 | 2.0 | 2.0 | 0.00 | 0.00 | 0.00 | 73 | 1010.7 |
| 20260508111530 | 49 | 250 | 3.0 | 3.0 | 0.00 | 0.00 | 0.00 | 74 | 1010.8 |
| 20260508111027 | 49 | 188 | 2.0 | 2.0 | 0.00 | 0.00 | 0.00 | 72 | 1010.5 |
| 20260508110525 | 49 | 197 | 1.0 | 1.0 | 0.00 | 0.00 | 0.00 | 74 | 1010.9 |
| 20260508110021 | 49 | 230 | 3.0 | 3.0 | 0.00 | 0.00 | 0.00 | 73 | 1010.7 |
| 20260508105516 | 49 | 250 | 3.0 | 3.0 | 0.00 | 0.00 | 0.00 | 73 | 1010.8 |
| 20260508105014 | 49 | 244 | 2.0 | 2.0 | 0.00 | 0.00 | 0.00 | 73 | 1010.8 |
| 20260508104511 | 49 | 247 | 2.0 | 2.0 | 0.00 | 0.00 | 0.00 | 74 | 1010.6 |
| 20260508104007 | 49 | 183 | 1.0 | 1.0 | 0.00 | 0.00 | 0.00 | 73 | 1010.8 |
| 20260508103504 | 49 | 201 | 1.0 | 1.0 | 0.00 | 0.00 | 0.00 | 73 | 1010.5 |
| 20260508103001 | 49 | 246 | 2.0 | 2.0 | 0.00 | 0.00 | 0.00 | 72 | 1010.7 |
| 20260508102500 | 49 | 197 | 1.0 | 1.0 | 0.00 | 0.00 | 0.00 | 73 | 1010.5 |
| 20260508101956 | 49 | 250 | 2.0 | 2.0 | 0.00 | 0.00 | 0.00 | 74 | 1010.5 |
| 20260508101454 | 49 | 200 | 1.0 | 1.0 | 0.00 | 0.00 | 0.00 | 74 | 1010.3 |
| 20260508100951 | 49 | 230 | 1.0 | 2.0 | 0.00 | 0.00 | 0.00 | 73 | 1010.5 |
| 20260508100450 | 49 | 255 | 2.0 | 3.0 | 0.00 | 0.00 | 0.00 | 75 | 1010.6 |
| 20260508095945 | 49 | 200 | 2.0 | 2.0 | 0.00 | 0.00 | 0.00 | 75 | 1010.5 |
| 20260508095443 | 49 | 246 | 3.0 | 3.0 | 0.00 | 0.00 | 0.00 | 73 | 1010.5 |
| 20260508094940 | 49 | 245 | 3.0 | 3.0 | 0.00 | 0.00 | 0.00 | 74 | 1010.5 |
| 20260508094437 | 49 | 194 | 2.0 | 2.0 | 0.00 | 0.00 | 0.00 | 72 | 1010.4 |
| 20260508093933 | 49 | 204 | 1.0 | 1.0 | 0.00 | 0.00 | 0.00 | 74 | 1010.5 |
| 20260508093431 | 49 | 232 | 2.0 | 2.0 | 0.00 | 0.00 | 0.00 | 74 | 1010.6 |
| 20260508092928 | 49 | 231 | 2.0 | 2.0 | 0.00 | 0.00 | 0.00 | 76 | 1010.4 |
| 20260508092426 | 49 | 193 | 2.0 | 2.0 | 0.00 | 0.00 | 0.00 | 75 | 1010.3 |
| 20260508091924 | 49 | 197 | 1.0 | 1.0 | 0.00 | 0.00 | 0.00 | 76 | 1010.3 |
| 20260508091421 | 48 | 232 | 1.0 | 2.0 | 0.00 | 0.00 | 0.00 | 81 | 1010.6 |
| 20260508090918 | 47 | 152 | 0.0 | 0.0 | 0.00 | 0.00 | 0.00 | 86 | 1010.4 |
| 20260508090417 | 48 | 149 | 0.0 | 0.0 | 0.00 | 0.00 | 0.00 | 86 | 1010.5 |
| 20260508085912 | 48 | 156 | 0.0 | 0.0 | 0.00 | 0.00 | 0.00 | 85 | 1010.4 |
| 20260508085409 | 49 | 154 | 0.0 | 0.0 | 0.00 | 0.00 | 0.00 | 83 | 1010.8 |
| 20260508084906 | 49 | 179 | 0.0 | 0.0 | 0.00 | 0.00 | 0.00 | 82 | 1010.8 |
| 20260508084402 | 49 | 192 | 0.0 | 0.0 | 0.00 | 0.00 | 0.00 | 81 | 1010.9 |
| 20260508083900 | 48 | 236 | 0.0 | 0.0 | 0.00 | 0.00 | 0.00 | 84 | 1010.7 |
| 20260508083358 | 49 | 153 | 0.0 | 0.0 | 0.00 | 0.00 | 0.00 | 86 | 1010.9 |
| 20260508082856 | 49 | 168 | 0.0 | 0.0 | 0.00 | 0.00 | 0.00 | 85 | 1010.8 |
| 20260508082355 | 49 | 168 | 0.0 | 0.0 | 0.00 | 0.00 | 0.00 | 83 | 1010.9 |
| 20260508081852 | 49 | 172 | 0.0 | 0.0 | 0.00 | 0.00 | 0.00 | 82 | 1010.9 |
| 20260508081348 | 49 | 172 | 0.0 | 0.0 | 0.00 | 0.00 | 0.00 | 82 | 1010.8 |
| 20260508080846 | 49 | 174 | 0.0 | 0.0 | 0.00 | 0.00 | 0.00 | 84 | 1011.0 |
| 20260508080343 | 50 | 181 | 0.0 | 0.0 | 0.00 | 0.00 | 0.00 | 84 | 1011.0 |
| 20260508075840 | 49 | 173 | 0.0 | 1.0 | 0.00 | 0.00 | 0.00 | 82 | 1011.3 |
| 20260508075337 | 50 | 219 | 1.0 | 2.0 | 0.00 | 0.00 | 0.00 | 83 | 1011.3 |
| 20260508074835 | 50 | 238 | 2.0 | 2.0 | 0.00 | 0.00 | 0.00 | 81 | 1011.3 |
| 20260508074332 | 50 | 243 | 3.0 | 3.0 | 0.00 | 0.00 | 0.00 | 80 | 1011.3 |
| 20260508073828 | 50 | 243 | 2.0 | 2.0 | 0.00 | 0.00 | 0.00 | 78 | 1011.5 |
| 20260508073327 | 50 | 238 | 2.0 | 2.0 | 0.00 | 0.00 | 0.00 | 76 | 1011.2 |
| 20260508072822 | 50 | 233 | 2.0 | 2.0 | 0.00 | 0.00 | 0.00 | 78 | 1011.3 |
| 20260508072319 | 50 | 234 | 2.0 | 2.0 | 0.00 | 0.00 | 0.00 | 76 | 1011.4 |
| 20260508071817 | 51 | 248 | 2.0 | 2.0 | 0.00 | 0.00 | 0.00 | 75 | 1011.5 |
| 20260508071315 | 51 | 240 | 3.0 | 3.0 | 0.00 | 0.00 | 0.00 | 75 | 1011.4 |
| 20260508070812 | 51 | 238 | 4.0 | 6.0 | 0.00 | 0.00 | 0.00 | 76 | 1011.5 |
| 20260508070311 | 51 | 248 | 4.0 | 5.0 | 0.00 | 0.00 | 0.00 | 74 | 1011.4 |
| 20260508065807 | 52 | 250 | 4.0 | 5.0 | 0.00 | 0.00 | 0.00 | 69 | 1011.5 |
| 20260508065307 | 52 | 254 | 4.0 | 5.0 | 0.00 | 0.00 | 0.00 | 68 | 1011.4 |
| 20260508064803 | 53 | 263 | 2.0 | 2.0 | 0.00 | 0.00 | 0.00 | 65 | 1011.4 |
| 20260508064301 | 53 | 256 | 3.0 | 3.0 | 0.00 | 0.00 | 0.00 | 63 | 1011.4 |
| 20260508063758 | 53 | 246 | 4.0 | 5.0 | 0.00 | 0.00 | 0.00 | 63 | 1011.4 |
| 20260508063256 | 53 | 245 | 4.0 | 5.0 | 0.00 | 0.00 | 0.00 | 63 | 1011.2 |
| 20260508062753 | 53 | 249 | 4.0 | 5.0 | 0.00 | 0.00 | 0.00 | 62 | 1011.5 |
| 20260508062250 | 53 | 243 | 4.0 | 5.0 | 0.00 | 0.00 | 0.00 | 62 | 1011.5 |
| 20260508061747 | 53 | 197 | 2.0 | 3.0 | 0.00 | 0.00 | 0.00 | 62 | 1011.5 |
| 20260508061244 | 53 | 249 | 3.0 | 3.0 | 0.00 | 0.00 | 0.00 | 64 | 1011.4 |
| 20260508060741 | 53 | 250 | 0.0 | 2.0 | 0.00 | 0.00 | 0.00 | 62 | 1011.4 |
| 20260508060239 | 53 | 253 | 3.0 | 3.0 | 0.00 | 0.00 | 0.00 | 65 | 1011.5 |
| 20260508055734 | 52 | 170 | 0.0 | 1.0 | 0.00 | 0.00 | 0.00 | 65 | 1011.4 |
| 20260508055231 | 52 | 192 | 1.0 | 1.0 | 0.00 | 0.00 | 0.00 | 65 | 1011.4 |
| 20260508054727 | 52 | 242 | 2.0 | 2.0 | 0.00 | 0.00 | 0.00 | 63 | 1011.4 |
| 20260508054226 | 52 | 174 | 0.0 | 0.0 | 0.00 | 0.00 | 0.00 | 65 | 1011.4 |
| 20260508053722 | 52 | 240 | 3.0 | 3.0 | 0.00 | 0.00 | 0.00 | 66 | 1011.4 |
| 20260508053220 | 52 | 214 | 1.0 | 2.0 | 0.00 | 0.00 | 0.00 | 64 | 1011.6 |
| 20260508052717 | 52 | 233 | 2.0 | 2.0 | 0.00 | 0.00 | 0.00 | 67 | 1011.6 |
| 20260508052214 | 51 | 226 | 2.0 | 2.0 | 0.00 | 0.00 | 0.00 | 69 | 1011.4 |
| 20260508051710 | 51 | 207 | 1.0 | 2.0 | 0.00 | 0.00 | 0.00 | 69 | 1011.3 |
| 20260508051205 | 50 | 192 | 0.0 | 0.0 | 0.00 | 0.00 | 0.00 | 75 | 1011.5 |
| 20260508050701 | 50 | 187 | 0.0 | 0.0 | 0.00 | 0.00 | 0.00 | 73 | 1011.3 |
| 20260508050159 | 50 | 237 | 0.0 | 0.0 | 0.00 | 0.00 | 0.00 | 73 | 1011.4 |
| 20260508045654 | 50 | 174 | 0.0 | 0.0 | 0.00 | 0.00 | 0.00 | 77 | 1011.5 |
| 20260508045153 | 50 | 190 | 0.0 | 0.0 | 0.00 | 0.00 | 0.00 | 75 | 1011.6 |
| 20260508044650 | 49 | 172 | 0.0 | 0.0 | 0.00 | 0.00 | 0.00 | 76 | 1011.6 |
| 20260508044146 | 49 | 199 | 0.0 | 0.0 | 0.00 | 0.00 | 0.00 | 80 | 1011.3 |
| 20260508043642 | 49 | 178 | 0.0 | 0.0 | 0.00 | 0.00 | 0.00 | 80 | 1011.4 |
| 20260508043140 | 49 | 187 | 0.0 | 0.0 | 0.00 | 0.00 | 0.00 | 82 | 1011.6 |
| 20260508042637 | 49 | 150 | 0.0 | 0.0 | 0.00 | 0.00 | 0.00 | 81 | 1011.6 |
| 20260508042134 | 50 | 165 | 0.0 | 0.0 | 0.00 | 0.00 | 0.00 | 80 | 1011.6 |
| 20260508041630 | 50 | 197 | 0.0 | 0.0 | 0.00 | 0.00 | 0.00 | 78 | 1011.4 |
| 20260508041127 | 50 | 185 | 0.0 | 0.0 | 0.00 | 0.00 | 0.00 | 79 | 1011.4 |
| 20260508040624 | 50 | 211 | 0.0 | 0.0 | 0.00 | 0.00 | 0.00 | 77 | 1011.2 |
| 20260508040121 | 50 | 174 | 0.0 | 0.0 | 0.00 | 0.00 | 0.00 | 79 | 1011.4 |
| 20260508035618 | 50 | 188 | 0.0 | 0.0 | 0.00 | 0.00 | 0.00 | 80 | 1011.3 |
| 20260508035116 | 49 | 196 | 0.0 | 0.0 | 0.00 | 0.00 | 0.00 | 85 | 1011.4 |
| 20260508034612 | 48 | 181 | 0.0 | 0.0 | 0.00 | 0.00 | 0.00 | 89 | 1011.4 |
| 20260508034109 | 48 | 158 | 0.0 | 0.0 | 0.00 | 0.00 | 0.00 | 92 | 1011.6 |
| 20260508033607 | 48 | 134 | 0.0 | 0.0 | 0.00 | 0.00 | 0.00 | 92 | 1011.4 |
| 20260508033105 | 48 | 144 | 0.0 | 0.0 | 0.00 | 0.00 | 0.00 | 92 | 1011.5 |
| 20260508032601 | 48 | 143 | 0.0 | 0.0 | 0.00 | 0.00 | 0.00 | 92 | 1011.5 |
| 20260508032059 | 48 | 143 | 0.0 | 0.0 | 0.00 | 0.00 | 0.00 | 92 | 1011.3 |
| 20260508031556 | 48 | 143 | 0.0 | 0.0 | 0.00 | 0.00 | 0.00 | 92 | 1011.5 |
| 20260508031052 | 48 | 141 | 0.0 | 0.0 | 0.00 | 0.00 | 0.00 | 92 | 1011.7 |
| 20260508030548 | 48 | 153 | 0.0 | 0.0 | 0.00 | 0.00 | 0.00 | 92 | 1011.8 |
| 20260508030047 | 47 | 155 | 0.0 | 0.0 | 0.00 | 0.00 | 0.00 | 91 | 1011.6 |
| 20260508025542 | 47 | 144 | 0.0 | 0.0 | 0.00 | 0.00 | 0.00 | 91 | 1011.8 |
| 20260508025039 | 47 | 144 | 0.0 | 0.0 | 0.00 | 0.00 | 0.00 | 90 | 1011.7 |
| 20260508024535 | 47 | 144 | 0.0 | 0.0 | 0.00 | 0.00 | 0.00 | 90 | 1011.3 |
| 20260508024033 | 47 | 144 | 0.0 | 0.0 | 0.00 | 0.00 | 0.00 | 90 | 1011.5 |
| 20260508023529 | 47 | 144 | 0.0 | 0.0 | 0.00 | 0.00 | 0.00 | 90 | 1011.4 |
| 20260508023026 | 47 | 144 | 0.0 | 0.0 | 0.00 | 0.00 | 0.00 | 89 | 1011.6 |
| 20260508022522 | 47 | 144 | 0.0 | 0.0 | 0.00 | 0.00 | 0.00 | 89 | 1011.5 |
| 20260508022019 | 47 | 144 | 0.0 | 0.0 | 0.00 | 0.00 | 0.00 | 89 | 1011.4 |
| 20260508021515 | 47 | 144 | 0.0 | 0.0 | 0.00 | 0.00 | 0.00 | 89 | 1011.5 |
| 20260508021011 | 47 | 144 | 0.0 | 0.0 | 0.00 | 0.00 | 0.00 | 88 | 1011.2 |
| 20260508020509 | 47 | 144 | 0.0 | 0.0 | 0.00 | 0.00 | 0.00 | 88 | 1011.2 |
| 20260508020007 | 48 | 144 | 0.0 | 0.0 | 0.00 | 0.00 | 0.00 | 89 | 1011.3 |
| 20260508015504 | 48 | 144 | 0.0 | 0.0 | 0.00 | 0.00 | 0.00 | 90 | 1011.2 |
| 20260508015001 | 48 | 144 | 0.0 | 0.0 | 0.00 | 0.00 | 0.00 | 90 | 1011.0 |
| 20260508014457 | 48 | 144 | 0.0 | 0.0 | 0.00 | 0.00 | 0.00 | 89 | 1011.2 |
| 20260508013953 | 48 | 144 | 0.0 | 0.0 | 0.00 | 0.00 | 0.00 | 89 | 1010.9 |
| 20260508013449 | 48 | 144 | 0.0 | 0.0 | 0.00 | 0.00 | 0.00 | 88 | 1011.0 |
| 20260508012947 | 49 | 145 | 0.0 | 0.0 | 0.00 | 0.00 | 0.00 | 87 | 1011.0 |
| 20260508012444 | 49 | 154 | 0.0 | 0.0 | 0.00 | 0.00 | 0.00 | 86 | 1011.0 |
| 20260508011941 | 49 | 154 | 0.0 | 0.0 | 0.00 | 0.00 | 0.00 | 85 | 1010.9 |
| 20260508011439 | 49 | 151 | 0.0 | 0.0 | 0.00 | 0.00 | 0.00 | 84 | 1011.0 |
| 20260508010936 | 50 | 144 | 0.0 | 0.0 | 0.00 | 0.00 | 0.00 | 83 | 1011.0 |
| 20260508010433 | 50 | 152 | 0.0 | 0.0 | 0.00 | 0.00 | 0.00 | 82 | 1010.9 |
| 20260508005930 | 50 | 152 | 0.0 | 0.0 | 0.00 | 0.00 | 0.00 | 81 | 1011.0 |
| 20260508005427 | 51 | 161 | 0.0 | 0.0 | 0.00 | 0.00 | 0.00 | 80 | 1010.9 |
| 20260508004923 | 51 | 160 | 0.0 | 0.0 | 0.00 | 0.00 | 0.00 | 79 | 1011.0 |
| 20260508004419 | 51 | 153 | 0.0 | 0.0 | 0.00 | 0.00 | 0.00 | 80 | 1011.1 |
| 20260508003916 | 52 | 155 | 0.0 | 0.0 | 0.00 | 0.00 | 0.00 | 79 | 1011.2 |
| 20260508003413 | 52 | 154 | 0.0 | 0.0 | 0.00 | 0.00 | 0.00 | 78 | 1011.5 |
| 20260508002911 | 52 | 157 | 0.0 | 0.0 | 0.00 | 0.00 | 0.00 | 78 | 1011.2 |
| 20260508002407 | 52 | 154 | 0.0 | 0.0 | 0.00 | 0.00 | 0.00 | 80 | 1011.5 |
| 20260508001903 | 52 | 155 | 0.0 | 0.0 | 0.00 | 0.00 | 0.00 | 78 | 1011.4 |
| 20260508001359 | 52 | 155 | 0.0 | 0.0 | 0.00 | 0.00 | 0.00 | 79 | 1011.6 |
| 20260508000856 | 52 | 155 | 0.0 | 0.0 | 0.00 | 0.00 | 0.00 | 78 | 1011.3 |
| 20260508000352 | 52 | 154 | 0.0 | 0.0 | 0.00 | 0.00 | 0.00 | 77 | 1011.4 |
| 20260507235848 | 52 | 156 | 0.0 | 0.0 | 0.00 | 0.00 | 0.00 | 77 | 1011.4 |
| 20260507235346 | 52 | 163 | 0.0 | 0.0 | 0.00 | 0.00 | 0.00 | 77 | 1011.5 |
| 20260507234843 | 53 | 185 | 0.0 | 0.0 | 0.00 | 0.00 | 0.00 | 77 | 1011.5 |
| 20260507234339 | 53 | 129 | 0.0 | 0.0 | 0.00 | 0.00 | 0.00 | 76 | 1011.5 |
| 20260507233836 | 53 | 134 | 0.0 | 0.0 | 0.00 | 0.00 | 0.00 | 77 | 1011.6 |
| 20260507233334 | 53 | 251 | 0.0 | 0.0 | 0.00 | 0.00 | 0.00 | 77 | 1011.6 |
| 20260507232832 | 53 | 119 | 0.0 | 0.0 | 0.00 | 0.00 | 0.00 | 75 | 1011.6 |
| 20260507232328 | 53 | 133 | 0.0 | 0.0 | 0.00 | 0.00 | 0.00 | 76 | 1011.6 |
| 20260507231825 | 53 | 287 | 0.0 | 0.0 | 0.00 | 0.00 | 0.00 | 74 | 1011.8 |
| 20260507231322 | 53 | 36 | 2.0 | 2.0 | 0.00 | 0.00 | 0.00 | 73 | 1011.6 |
| 20260507230818 | 55 | 163 | 0.0 | 1.0 | 0.00 | 0.00 | 0.00 | 70 | 1011.9 |
| 20260507230316 | 57 | 74 | 2.0 | 3.0 | 0.00 | 0.00 | 0.00 | 61 | 1011.9 |
| 20260507225815 | 57 | 151 | 0.0 | 0.0 | 0.00 | 0.00 | 0.00 | 52 | 1011.3 |
| 20260507225312 | 57 | 215 | 0.0 | 0.0 | 0.00 | 0.00 | 0.00 | 56 | 1011.5 |
| 20260507224808 | 58 | 259 | 2.0 | 2.0 | 0.00 | 0.00 | 0.00 | 50 | 1011.3 |
| 20260507224304 | 58 | 247 | 4.0 | 5.0 | 0.00 | 0.00 | 0.00 | 52 | 1011.2 |
| 20260507223801 | 58 | 251 | 4.0 | 5.0 | 0.00 | 0.00 | 0.00 | 49 | 1011.3 |
| 20260507223257 | 59 | 237 | 3.0 | 3.0 | 0.00 | 0.00 | 0.00 | 49 | 1011.4 |
| 20260507222754 | 59 | 256 | 5.0 | 5.0 | 0.00 | 0.00 | 0.00 | 46 | 1011.1 |
| 20260507222250 | 59 | 248 | 3.0 | 3.0 | 0.00 | 0.00 | 0.00 | 49 | 1011.1 |
| 20260507221748 | 60 | 254 | 4.0 | 5.0 | 0.00 | 0.00 | 0.00 | 46 | 1010.8 |
| 20260507221244 | 60 | 267 | 5.0 | 6.0 | 0.00 | 0.00 | 0.00 | 42 | 1011.0 |
| 20260507220740 | 60 | 179 | 1.0 | 1.0 | 0.00 | 0.00 | 0.00 | 47 | 1010.8 |
| 20260507220239 | 60 | 202 | 1.0 | 1.0 | 0.00 | 0.00 | 0.00 | 46 | 1010.8 |
| 20260507215734 | 60 | 270 | 4.0 | 5.0 | 0.00 | 0.00 | 0.00 | 46 | 1010.6 |
| 20260507215232 | 59 | 261 | 4.0 | 5.0 | 0.00 | 0.00 | 0.00 | 48 | 1010.8 |
| 20260507214729 | 60 | 246 | 4.0 | 5.0 | 0.00 | 0.00 | 0.00 | 45 | 1010.7 |
| 20260507214226 | 60 | 180 | 3.0 | 3.0 | 0.00 | 0.00 | 0.00 | 44 | 1010.7 |
| 20260507213722 | 59 | 202 | 0.0 | 0.0 | 0.00 | 0.00 | 0.00 | 49 | 1010.8 |
| 20260507213219 | 60 | 241 | 4.0 | 5.0 | 0.00 | 0.00 | 0.00 | 47 | 1010.8 |
| 20260507212715 | 61 | 276 | 4.0 | 5.0 | 0.00 | 0.00 | 0.00 | 47 | 1010.7 |
| 20260507212212 | 61 | 258 | 3.0 | 3.0 | 0.00 | 0.00 | 0.00 | 43 | 1010.8 |
| 20260507211709 | 60 | 197 | 0.0 | 1.0 | 0.00 | 0.00 | 0.00 | 46 | 1010.7 |
| 20260507211204 | 61 | 241 | 3.0 | 5.0 | 0.00 | 0.00 | 0.00 | 43 | 1010.9 |
| 20260507210702 | 61 | 203 | 2.0 | 2.0 | 0.00 | 0.00 | 0.00 | 45 | 1010.8 |
| 20260507210158 | 62 | 223 | 3.0 | 5.0 | 0.00 | 0.00 | 0.00 | 43 | 1010.8 |
| 20260507205655 | 62 | 293 | 3.0 | 3.0 | 0.00 | 0.00 | 0.00 | 42 | 1011.0 |
| 20260507205152 | 62 | 247 | 3.0 | 3.0 | 0.00 | 0.00 | 0.00 | 48 | 1010.9 |
| 20260507204648 | 60 | 155 | 0.0 | 1.0 | 0.00 | 0.00 | 0.00 | 50 | 1011.0 |
| 20260507204146 | 61 | 144 | 0.0 | 0.0 | 0.00 | 0.00 | 0.00 | 44 | 1011.1 |
| 20260507203644 | 63 | 235 | 2.0 | 2.0 | 0.00 | 0.00 | 0.00 | 45 | 1011.0 |
| 20260507203141 | 63 | 257 | 2.0 | 2.0 | 0.00 | 0.00 | 0.00 | 43 | 1011.1 |
| 20260507202636 | 61 | 267 | 2.0 | 2.0 | 0.00 | 0.00 | 0.00 | 47 | 1011.4 |
| 20260507202133 | 62 | 253 | 4.0 | 5.0 | 0.00 | 0.00 | 0.00 | 40 | 1011.3 |
| 20260507201628 | 60 | 242 | 2.0 | 2.0 | 0.00 | 0.00 | 0.00 | 45 | 1011.4 |
| 20260507201125 | 64 | 254 | 2.0 | 3.0 | 0.00 | 0.00 | 0.00 | 42 | 1011.6 |
| 20260507200621 | 64 | 257 | 2.0 | 2.0 | 0.00 | 0.00 | 0.00 | 39 | 1011.7 |
| 20260507200117 | 63 | 274 | 4.0 | 5.0 | 0.00 | 0.00 | 0.00 | 44 | 1011.6 |
| 20260507195614 | 63 | 207 | 3.0 | 3.0 | 0.00 | 0.00 | 0.00 | 43 | 1011.9 |
| 20260507195112 | 63 | 173 | 2.0 | 2.0 | 0.00 | 0.00 | 0.00 | 40 | 1011.7 |
| 20260507194608 | 63 | 47 | 0.0 | 0.0 | 0.00 | 0.00 | 0.00 | 45 | 1011.7 |
| 20260507194103 | 64 | 271 | 1.0 | 2.0 | 0.00 | 0.00 | 0.00 | 43 | 1012.0 |
| 20260507193601 | 63 | 255 | 4.0 | 5.0 | 0.00 | 0.00 | 0.00 | 41 | 1012.1 |
| 20260507193057 | 62 | 255 | 7.0 | 8.0 | 0.00 | 0.00 | 0.00 | 44 | 1012.2 |
| 20260507192554 | 62 | 230 | 1.0 | 2.0 | 0.00 | 0.00 | 0.00 | 38 | 1012.1 |
| 20260507192051 | 62 | 220 | 2.0 | 2.0 | 0.00 | 0.00 | 0.00 | 42 | 1012.2 |
| 20260507191546 | 65 | 215 | 0.0 | 0.0 | 0.00 | 0.00 | 0.00 | 39 | 1012.3 |
| 20260507191044 | 64 | 74 | 1.0 | 1.0 | 0.00 | 0.00 | 0.00 | 43 | 1012.1 |
| 20260507190541 | 64 | 260 | 4.0 | 6.0 | 0.00 | 0.00 | 0.00 | 44 | 1012.1 |
| 20260507190039 | 62 | 213 | 1.0 | 1.0 | 0.00 | 0.00 | 0.00 | 48 | 1012.3 |
| 20260507185537 | 63 | 234 | 3.0 | 3.0 | 0.00 | 0.00 | 0.00 | 43 | 1012.5 |
| 20260507185033 | 65 | 177 | 0.0 | 1.0 | 0.00 | 0.00 | 0.00 | 51 | 1012.5 |
| 20260507184532 | 67 | 203 | 0.0 | 0.0 | 0.00 | 0.00 | 0.00 | 45 | 1012.4 |
| 20260507184030 | 66 | 66 | 0.0 | 0.0 | 0.00 | 0.00 | 0.00 | 42 | 1012.5 |
| 20260507183525 | 64 | 11 | 1.0 | 1.0 | 0.00 | 0.00 | 0.00 | 40 | 1012.6 |
| 20260507183023 | 61 | 272 | 1.0 | 1.0 | 0.00 | 0.00 | 0.00 | 43 | 1012.6 |
| 20260507182519 | 61 | 258 | 3.0 | 3.0 | 0.00 | 0.00 | 0.00 | 46 | 1012.8 |
| 20260507182015 | 61 | 231 | 3.0 | 3.0 | 0.00 | 0.00 | 0.00 | 48 | 1012.5 |
| 20260507181512 | 62 | 157 | 0.0 | 1.0 | 0.00 | 0.00 | 0.00 | 49 | 1012.8 |
| 20260507181008 | 61 | 169 | 1.0 | 1.0 | 0.00 | 0.00 | 0.00 | 50 | 1012.5 |
| 20260507180504 | 61 | 173 | 0.0 | 0.0 | 0.00 | 0.00 | 0.00 | 48 | 1012.5 |
| 20260507180001 | 60 | 40 | 1.0 | 2.0 | 0.00 | 0.00 | 0.00 | 40 | 1012.4 |
| 20260507175457 | 62 | 25 | 1.0 | 2.0 | 0.00 | 0.00 | 0.00 | 52 | 1012.8 |
| 20260507174955 | 64 | 250 | 0.0 | 1.0 | 0.00 | 0.00 | 0.00 | 46 | 1013.1 |
| 20260507174452 | 62 | 204 | 1.0 | 1.0 | 0.00 | 0.00 | 0.00 | 52 | 1013.0 |
| 20260507173950 | 62 | 125 | 0.0 | 1.0 | 0.00 | 0.00 | 0.00 | 53 | 1013.2 |
| 20260507173447 | 61 | 267 | 4.0 | 5.0 | 0.00 | 0.00 | 0.00 | 41 | 1013.2 |
| 20260507172944 | 61 | 219 | 1.0 | 2.0 | 0.00 | 0.00 | 0.00 | 57 | 1013.2 |
| 20260507172440 | 60 | 149 | 0.0 | 0.0 | 0.00 | 0.00 | 0.00 | 52 | 1013.2 |
| 20260507171937 | 63 | 245 | 4.0 | 5.0 | 0.00 | 0.00 | 0.00 | 44 | 1013.1 |
| 20260507171432 | 62 | 154 | 0.0 | 0.0 | 0.00 | 0.00 | 0.00 | 50 | 1013.5 |
| 20260507170930 | 62 | 260 | 2.0 | 3.0 | 0.00 | 0.00 | 0.00 | 44 | 1013.5 |
| 20260507170426 | 62 | 248 | 3.0 | 3.0 | 0.00 | 0.00 | 0.00 | 44 | 1013.5 |
| 20260507165923 | 60 | 113 | 0.0 | 0.0 | 0.00 | 0.00 | 0.00 | 48 | 1013.5 |
| 20260507165419 | 60 | 41 | 3.0 | 3.0 | 0.00 | 0.00 | 0.00 | 42 | 1013.5 |
| 20260507164914 | 61 | 242 | 3.0 | 5.0 | 0.00 | 0.00 | 0.00 | 43 | 1013.7 |
| 20260507164412 | 62 | 158 | 1.0 | 2.0 | 0.00 | 0.00 | 0.00 | 53 | 1013.8 |
| 20260507163909 | 61 | 126 | 0.0 | 1.0 | 0.00 | 0.00 | 0.00 | 51 | 1013.7 |
| 20260507163406 | 60 | 124 | 1.0 | 1.0 | 0.00 | 0.00 | 0.00 | 49 | 1013.9 |
| 20260507162903 | 58 | 237 | 1.0 | 2.0 | 0.00 | 0.00 | 0.00 | 54 | 1014.1 |
| 20260507162358 | 59 | 242 | 3.0 | 3.0 | 0.00 | 0.00 | 0.00 | 43 | 1014.0 |
| 20260507161856 | 59 | 263 | 3.0 | 3.0 | 0.00 | 0.00 | 0.00 | 51 | 1014.0 |
| 20260507161352 | 58 | 114 | 0.0 | 0.0 | 0.00 | 0.00 | 0.00 | 53 | 1014.1 |
| 20260507160849 | 58 | 283 | 4.0 | 5.0 | 0.00 | 0.00 | 0.00 | 45 | 1014.1 |
| 20260507160344 | 57 | 257 | 4.0 | 5.0 | 0.00 | 0.00 | 0.00 | 45 | 1014.0 |